TimeEDT,TemperatureF,Dew PointF,Humidity,Sea Level PressureIn,VisibilityMPH,Wind Direction,Wind SpeedMPH,Gust SpeedMPH,PrecipitationIn,Events,Conditions,WindDirDegrees,DateUTC
12:56 AM,54.0,48.9,83,30.35,10.0,North,4.6,-,N/A,,Clear,360,2012-10-14 04:56:00
1:56 AM,53.1,48.9,86,30.32,10.0,Calm,Calm,-,N/A,,Clear,0,2012-10-14 05:56:00
2:56 AM,53.1,48.9,86,30.30,10.0,North,3.5,-,N/A,,Clear,360,2012-10-14 06:56:00
3:56 AM,52.0,48.0,86,30.28,10.0,Calm,Calm,-,N/A,,Clear,0,2012-10-14 07:56:00
4:56 AM,51.1,48.9,92,30.27,10.0,Calm,Calm,-,N/A,,Clear,0,2012-10-14 08:56:00
5:56 AM,54.0,51.1,90,30.27,10.0,North,3.5,-,N/A,,Clear,10,2012-10-14 09:56:00
6:56 AM,54.0,51.1,90,30.27,10.0,Calm,Calm,-,N/A,,Clear,0,2012-10-14 10:56:00
7:56 AM,54.0,51.1,90,30.28,10.0,NNW,3.5,-,N/A,,Clear,340,2012-10-14 11:56:00
8:56 AM,59.0,54.0,83,30.28,10.0,Calm,Calm,-,N/A,,Clear,0,2012-10-14 12:56:00
9:56 AM,66.9,57.9,73,30.29,10.0,Calm,Calm,-,N/A,,Clear,0,2012-10-14 13:56:00
10:56 AM,73.0,59.0,61,30.28,10.0,ESE,3.5,-,N/A,,Clear,110,2012-10-14 14:56:00
11:56 AM,77.0,60.1,56,30.26,10.0,ESE,5.8,-,N/A,,Clear,110,2012-10-14 15:56:00
12:56 PM,77.0,57.9,52,30.23,10.0,ESE,9.2,-,N/A,,Clear,110,2012-10-14 16:56:00
2:56 PM,79.0,55.9,45,30.18,10.0,South,8.1,-,N/A,,Clear,180,2012-10-14 18:56:00
3:56 PM,79.0,57.9,48,30.16,10.0,SSE,6.9,-,N/A,,Clear,150,2012-10-14 19:56:00
4:56 PM,75.9,57.9,54,30.15,10.0,South,10.4,-,N/A,,Clear,170,2012-10-14 20:56:00
5:56 PM,73.9,59.0,59,30.14,10.0,SSE,5.8,-,N/A,,Clear,160,2012-10-14 21:56:00
6:56 PM,66.0,59.0,78,30.14,10.0,SE,5.8,-,N/A,,Clear,140,2012-10-14 22:56:00
7:56 PM,63.0,60.1,90,30.14,10.0,Calm,Calm,-,N/A,,Clear,0,2012-10-14 23:56:00
8:56 PM,61.0,59.0,93,30.14,10.0,Calm,Calm,-,N/A,,Clear,0,2012-10-15 00:56:00
9:56 PM,59.0,57.0,93,30.13,10.0,Calm,Calm,-,N/A,,Clear,0,2012-10-15 01:56:00
10:56 PM,59.0,57.0,93,30.11,10.0,SSE,4.6,-,N/A,,Clear,160,2012-10-15 02:56:00
11:56 PM,59.0,57.0,93,30.09,10.0,Calm,Calm,-,N/A,,Clear,0,2012-10-15 03:56:00